Flag for U.S.A. Weather past 2 weeks in Naples, Florida, U.S.A.

Now
83 °F

Passing clouds.


Feels Like: 90 °F
Forecast: 78 / 87 °F
Wind: 7 mph from Northwest

Location: Naples Municipal

Current Time: Apr 27, 2015 at 9:54:22 AM

Latest Report: Apr 27, 2015 at 8:53 AM


Visibility: 7 mi

Pressure: 29.85 "Hg

Humidity: 77%

Dew point: 75 °F

Location of NaplesLocation

Historic Weather in Naples — Graph

°F

Naples temperature yesterday

Maximum temperature yesterday: 89 °F (at 1:53 PM)
Minimum temperature yesterday: 80 °F (at 12:53 AM)
Average temperature yesterday: 84 °F

Past Weeks' High & Low Weather Summary

 TemperatureHumidityPressure
High89 °F (Apr 26, 1:53 PM)94% (Apr 13, 5:53 AM)30.16 "Hg (Apr 13, 5:53 AM)
Low70 °F (Apr 14, 4:53 AM)50% (Apr 19, 10:53 AM)29.76 "Hg (Apr 27, 3:53 AM)
Average80 °F76%29.98 "Hg
* Reported Apr 12 8:53 AM — Apr 27 8:53 AM, Naples, Weather by CustomWeather, © 2015

Note: Actual official high and low records may vary slightly from our data, if they occured in-between our weather recording intervals... More about our weather records

Advertising

Naples weather history for previous 24 hours

 ConditionsComfort  
Time TempWeatherWind HumidityBarometerVisibility
8:53 AM
Mon, Apr 27
83 °FPassing clouds.7 mph77%29.85 "Hg7 mi
7:53 AM82 °FBroken clouds.9 mph79%29.83 "Hg7 mi
6:53 AM81 °FOvercast.7 mph82%29.80 "Hg8 mi
5:53 AM80 °FPassing clouds.5 mph85%29.77 "Hg8 mi
4:53 AM80 °FClear.5 mph85%29.76 "Hg8 mi
3:53 AM81 °FPassing clouds.7 mph85%29.76 "Hg7 mi
2:53 AM81 °FPassing clouds.10 mph85%29.77 "Hg7 mi
1:53 AM81 °FPassing clouds.9 mph85%29.79 "Hg7 mi
12:53 AM81 °FClear.9 mph85%29.81 "Hg8 mi
11:53 PM
Sun, Apr 26
82 °FClear.7 mph82%29.82 "Hg8 mi
10:53 PM82 °FPassing clouds.7 mph82%29.82 "Hg8 mi
9:53 PM82 °FPartly cloudy.10 mph82%29.83 "Hg8 mi
8:53 PM83 °FBroken clouds.9 mph79%29.81 "Hg8 mi
7:53 PM83 °FBroken clouds.12 mph79%29.80 "Hg7 mi
6:53 PM84 °FBroken clouds.12 mph77%29.79 "Hg6 mi
5:53 PM85 °FBroken clouds.10 mph75%29.79 "Hg6 mi
4:53 PM86 °FScattered clouds.9 mph72%29.79 "Hg6 mi
3:53 PM87 °FPassing clouds.13 mph69%29.79 "Hg7 mi
2:53 PM87 °FSunny.14 mph67%29.81 "Hg7 mi
1:53 PM89 °FSunny.16 mph61%29.82 "Hg8 mi
12:53 PM88 °FSunny.15 mph61%29.83 "Hg9 mi
11:53 AM88 °FSunny.16 mph57%29.83 "Hg9 mi
10:53 AM87 °FSunny.18 mph63%29.83 "Hg8 mi
9:53 AM85 °FSunny.16 mph68%29.83 "Hg8 mi
Weather by CustomWeather, © 2015

See weather overviewHow to use our weather pages